EW3714 Weather Reports


Display with metric or nautical units.
time (UTC)temp
F
wind
direction
speed
MPH
gust
MPH
rain 1hr
in
rain 24hr
in
rain mn
in
humidity
%
barometer
mb
20260509055020 74 51 2.0 2.0 0.00 0.00 0.00 90 1010.9
20260509054517 74 85 2.0 3.0 0.00 0.00 0.00 90 1011.1
20260509054015 74 64 0.0 2.0 0.00 0.00 0.00 90 1011.1
20260509053513 74 83 1.0 2.0 0.00 0.00 0.00 90 1011.0
20260509053010 74 49 2.0 2.0 0.00 0.00 0.00 90 1010.8
20260509052508 74 42 1.0 2.0 0.00 0.00 0.00 90 1010.7
20260509052006 74 45 2.0 2.0 0.00 0.00 0.00 89 1010.4
20260509051503 74 113 1.0 2.0 0.00 0.00 0.00 89 1010.5
20260509051000 74 69 1.0 2.0 0.00 0.00 0.00 89 1010.4
20260509050456 74 69 1.0 2.0 0.00 0.00 0.00 89 1010.5
20260509045953 75 91 2.0 2.0 0.00 0.00 0.00 88 1010.4
20260509045450 75 84 1.0 2.0 0.00 0.00 0.00 88 1010.5
20260509044947 75 70 1.0 2.0 0.00 0.00 0.00 88 1010.6
20260509044445 75 66 1.0 2.0 0.00 0.00 0.00 87 1010.5
20260509043942 75 51 2.0 2.0 0.00 0.00 0.00 87 1010.4
20260509043438 75 12 1.0 2.0 0.00 0.00 0.00 87 1010.6
20260509042933 75 84 1.0 2.0 0.00 0.00 0.00 87 1010.6
20260509042431 75 95 1.0 2.0 0.00 0.00 0.00 87 1010.8
20260509041927 75 16 0.0 4.0 0.00 0.00 0.00 87 1010.8
20260509041424 75 70 1.0 2.0 0.00 0.00 0.00 87 1011.0
20260509040922 75 56 2.0 2.0 0.00 0.00 0.00 87 1010.9
20260509040420 75 107 1.0 2.0 0.00 0.00 0.00 87 1010.9
20260509035916 75 134 2.0 3.0 0.00 0.00 0.00 86 1010.8
20260509035413 75 61 2.0 2.0 0.00 0.00 0.00 86 1010.8
20260509034909 75 54 2.0 2.0 0.00 0.00 0.00 86 1010.8
20260509034408 75 42 1.0 2.0 0.00 0.00 0.00 86 1010.7
20260509033904 75 130 2.0 3.0 0.00 0.00 0.00 86 1010.5
20260509033401 75 77 1.0 2.0 0.00 0.00 0.00 87 1010.5
20260509032858 74 109 1.0 2.0 0.00 0.00 0.00 87 1010.7
20260509032355 74 61 2.0 2.0 0.00 0.00 0.00 87 1010.7
20260509031853 74 79 1.0 2.0 0.00 0.00 0.00 87 1010.7
20260509031350 74 106 1.0 2.0 0.00 0.00 0.00 87 1010.7
20260509030847 74 86 2.0 2.0 0.00 0.00 0.00 88 1010.6
20260509030346 74 88 2.0 2.0 0.00 0.00 0.00 88 1010.6
20260509025842 74 89 1.0 2.0 0.00 0.00 0.00 88 1010.6
20260509025337 74 85 2.0 2.0 0.00 0.00 0.00 87 1010.4
20260509024833 74 86 1.0 2.0 0.00 0.00 0.00 87 1010.1
20260509024329 74 76 2.0 2.0 0.00 0.00 0.00 87 1010.1
20260509023827 74 110 1.0 2.0 0.00 0.00 0.00 86 1010.1
20260509023324 74 89 1.0 2.0 0.00 0.00 0.00 86 1010.1
20260509022821 75 88 2.0 2.0 0.00 0.00 0.00 86 1010.1
20260509022318 75 105 1.0 2.0 0.00 0.00 0.00 85 1009.7
20260509021814 75 86 0.0 2.0 0.00 0.00 0.00 84 1010.0
20260509021312 75 125 1.0 2.0 0.00 0.00 0.00 84 1009.8
20260509020809 76 75 0.0 2.0 0.00 0.00 0.00 84 1009.7
20260509020307 76 89 1.0 2.0 0.00 0.00 0.00 83 1009.7
20260509015805 76 82 1.0 2.0 0.00 0.00 0.00 83 1009.6
20260509015306 76 119 0.0 2.0 0.00 0.00 0.00 82 1009.7
20260509014759 76 103 0.0 2.0 0.00 0.00 0.00 82 1009.5
20260509014256 77 89 2.0 2.0 0.00 0.00 0.00 82 1009.5
20260509013752 77 89 2.0 2.0 0.00 0.00 0.00 81 1009.6
20260509013248 77 115 2.0 2.0 0.00 0.00 0.00 81 1009.5
20260509012745 77 79 2.0 2.0 0.00 0.00 0.00 81 1009.5
20260509012242 77 183 2.0 2.0 0.00 0.00 0.00 80 1009.6
20260509011739 77 103 1.0 2.0 0.00 0.00 0.00 80 1009.5
20260509011236 77 92 1.0 2.0 0.00 0.00 0.00 80 1009.4
20260509010734 78 107 2.0 2.0 0.00 0.00 0.00 79 1009.3
20260509010231 78 82 1.0 2.0 0.00 0.00 0.00 79 1009.6
20260509005728 78 79 1.0 2.0 0.00 0.00 0.00 79 1009.5
20260509005226 78 89 2.0 2.0 0.00 0.00 0.00 78 1009.4
20260509004725 78 96 1.0 2.0 0.00 0.00 0.00 78 1009.4
20260509004223 78 123 0.0 2.0 0.00 0.00 0.00 77 1009.3
20260509003721 78 87 1.0 2.0 0.00 0.00 0.00 78 1009.2
20260509003218 79 102 1.0 2.0 0.00 0.00 0.00 77 1009.2
20260509002715 79 109 1.0 2.0 0.00 0.00 0.00 77 1009.3
20260509002213 79 93 2.0 2.0 0.00 0.00 0.00 77 1009.3
20260509001711 79 109 2.0 2.0 0.00 0.00 0.00 75 1009.3
20260509001206 79 104 0.0 1.0 0.00 0.00 0.00 76 1009.3
20260509000705 79 115 1.0 2.0 0.00 0.00 0.00 75 1009.3
20260509000204 79 97 1.0 2.0 0.00 0.00 0.00 75 1009.3
20260508235658 80 128 1.0 2.0 0.00 0.00 0.00 74 1009.3
20260508235155 80 58 0.0 2.0 0.00 0.00 0.00 74 1009.2
20260508234652 80 114 2.0 2.0 0.00 0.00 0.00 74 1009.5
20260508234148 80 118 1.0 1.0 0.00 0.00 0.00 74 1009.4
20260508233648 80 70 1.0 2.0 0.00 0.00 0.00 74 1009.4
20260508233145 80 84 1.0 2.0 0.00 0.00 0.00 73 1009.4
20260508232642 80 142 2.0 2.0 0.00 0.00 0.00 72 1009.4
20260508232139 80 105 1.0 2.0 0.00 0.00 0.00 73 1009.3
20260508231637 80 94 1.0 2.0 0.00 0.00 0.00 72 1009.5
20260508231133 81 98 1.0 2.0 0.00 0.00 0.00 72 1009.4
20260508230629 81 88 1.0 2.0 0.00 0.00 0.00 72 1009.4
20260508230126 81 97 1.0 2.0 0.00 0.00 0.00 72 1009.3
20260508225625 81 152 1.0 2.0 0.00 0.00 0.00 72 1009.3
20260508225120 80 74 1.0 2.0 0.00 0.00 0.00 72 1009.4
20260508224618 80 67 1.0 2.0 0.00 0.00 0.00 72 1009.4
20260508224116 80 92 0.0 2.0 0.00 0.00 0.00 72 1009.7
20260508223613 81 145 1.0 2.0 0.00 0.00 0.00 71 1009.5
20260508223110 82 58 1.0 2.0 0.00 0.00 0.00 70 1009.6
20260508222607 82 112 1.0 2.0 0.00 0.00 0.00 69 1009.5
20260508222105 82 51 0.0 2.0 0.00 0.00 0.00 69 1009.4
20260508221601 83 89 1.0 2.0 0.00 0.00 0.00 69 1009.4
20260508221057 82 100 1.0 2.0 0.00 0.00 0.00 69 1009.4
20260508220553 82 113 0.0 2.0 0.00 0.00 0.00 69 1009.3
20260508220049 82 145 1.0 2.0 0.00 0.00 0.00 69 1009.3
20260508215547 82 159 1.0 2.0 0.00 0.00 0.00 69 1009.6
20260508215043 82 113 0.0 2.0 0.00 0.00 0.00 69 1009.4
20260508214541 82 141 1.0 2.0 0.00 0.00 0.00 68 1009.4
20260508214037 82 130 2.0 2.0 0.00 0.00 0.00 68 1009.5
20260508213535 82 73 1.0 2.0 0.00 0.00 0.00 69 1009.7
20260508213030 81 92 1.0 2.0 0.00 0.00 0.00 70 1009.6
20260508212527 82 137 1.0 2.0 0.00 0.00 0.00 69 1009.8
20260508212023 81 129 2.0 2.0 0.00 0.00 0.00 69 1009.9
20260508211519 81 84 2.0 2.0 0.00 0.00 0.00 70 1009.9
20260508211015 81 147 2.0 2.0 0.00 0.00 0.00 69 1010.1
20260508210512 81 107 1.0 3.0 0.00 0.00 0.00 70 1010.1
20260508210010 82 64 0.0 2.0 0.00 0.00 0.00 68 1010.1
20260508205506 82 89 0.0 2.0 0.00 0.00 0.00 67 1010.4
20260508205002 82 119 0.0 3.0 0.00 0.00 0.00 68 1010.5
20260508204500 83 45 0.0 2.0 0.00 0.00 0.00 66 1010.5
20260508203955 84 21 2.0 4.0 0.00 0.00 0.00 64 1010.6
20260508203451 84 143 0.0 2.0 0.00 0.00 0.00 64 1010.6
20260508202947 83 118 0.0 2.0 0.00 0.00 0.00 65 1010.7
20260508202445 84 160 1.0 1.0 0.00 0.00 0.00 65 1010.6
20260508201941 84 41 0.0 4.0 0.00 0.00 0.00 63 1010.7
20260508201438 86 62 2.0 2.0 0.00 0.00 0.00 61 1010.6
20260508200935 84 95 0.0 3.0 0.00 0.00 0.00 63 1010.8
20260508200432 85 260 1.0 3.0 0.00 0.00 0.00 62 1011.0
20260508195927 86 96 1.0 2.0 0.00 0.00 0.00 62 1011.0
20260508195424 84 66 0.0 2.0 0.00 0.00 0.00 64 1011.1
20260508194920 82 104 0.0 2.0 0.00 0.00 0.00 66 1011.1
20260508194417 80 78 1.0 2.0 0.00 0.00 0.00 69 1011.2
20260508193914 80 54 2.0 4.0 0.00 0.00 0.00 68 1011.1
20260508193411 81 81 0.0 2.0 0.00 0.00 0.00 68 1011.4
20260508192908 82 116 0.0 2.0 0.00 0.00 0.00 65 1011.3
20260508192405 82 49 0.0 2.0 0.00 0.00 0.00 65 1011.3
20260508191902 82 112 1.0 2.0 0.00 0.00 0.00 64 1011.5
20260508191359 82 134 0.0 2.0 0.00 0.00 0.00 65 1011.4
20260508190856 82 33 2.0 2.0 0.00 0.00 0.00 64 1011.4
20260508190352 82 74 0.0 3.0 0.00 0.00 0.00 64 1011.5
20260508185849 82 95 1.0 2.0 0.00 0.00 0.00 65 1011.3
20260508185346 81 183 0.0 2.0 0.00 0.00 0.00 65 1011.6
20260508184844 82 139 0.0 2.0 0.00 0.00 0.00 65 1011.5
20260508184341 82 75 0.0 2.0 0.00 0.00 0.00 64 1011.6
20260508183838 82 161 0.0 2.0 0.00 0.00 0.00 63 1011.8
20260508183334 83 157 0.0 2.0 0.00 0.00 0.00 64 1011.8
20260508182830 82 33 0.0 2.0 0.00 0.00 0.00 63 1012.0
20260508182327 81 129 1.0 2.0 0.00 0.00 0.00 63 1011.9
20260508181822 80 67 0.0 2.0 0.00 0.00 0.00 66 1012.1
20260508181320 80 51 1.0 2.0 0.00 0.00 0.00 66 1012.4
20260508180817 81 67 1.0 2.0 0.00 0.00 0.00 63 1012.3
20260508180313 80 100 1.0 2.0 0.00 0.00 0.00 65 1012.5
20260508175809 80 69 1.0 2.0 0.00 0.00 0.00 64 1012.4
20260508175306 80 66 0.0 2.0 0.00 0.00 0.00 64 1012.4
20260508174804 81 92 2.0 2.0 0.00 0.00 0.00 62 1012.6
20260508174302 82 104 2.0 3.0 0.00 0.00 0.00 61 1012.7
20260508173757 82 97 0.0 2.0 0.00 0.00 0.00 60 1012.6
20260508173254 81 106 1.0 2.0 0.00 0.00 0.00 62 1012.6
20260508172750 80 126 1.0 2.0 0.00 0.00 0.00 62 1012.7
20260508172248 80 66 1.0 3.0 0.00 0.00 0.00 63 1012.6
20260508171744 79 117 0.0 2.0 0.00 0.00 0.00 64 1012.7
20260508171240 78 60 1.0 2.0 0.00 0.00 0.00 65 1012.5
20260508170737 77 101 0.0 2.0 0.00 0.00 0.00 66 1012.8
20260508170235 77 94 1.0 2.0 0.00 0.00 0.00 68 1012.9
20260508165732 76 44 0.0 2.0 0.00 0.00 0.00 68 1013.0
20260508165229 76 89 0.0 2.0 0.00 0.00 0.00 68 1013.0
20260508164725 76 45 0.0 2.0 0.00 0.00 0.00 67 1012.9
20260508164222 76 180 1.0 2.0 0.00 0.00 0.00 67 1013.1
20260508163720 75 84 2.0 2.0 0.00 0.00 0.00 68 1013.2
20260508163217 74 88 0.0 2.0 0.00 0.00 0.00 70 1013.3
20260508162713 73 37 0.0 3.0 0.00 0.00 0.00 71 1013.4
20260508162210 73 49 0.0 2.0 0.00 0.00 0.00 72 1013.5
20260508161707 72 112 1.0 2.0 0.00 0.00 0.00 71 1013.6
20260508161204 72 54 0.0 2.0 0.00 0.00 0.00 72 1013.8
20260508160702 72 103 0.0 2.0 0.00 0.00 0.00 73 1013.7
20260508160200 71 99 2.0 2.0 0.00 0.00 0.00 73 1013.8
20260508155657 71 95 1.0 2.0 0.00 0.00 0.00 73 1013.8
20260508155153 71 86 2.0 2.0 0.00 0.00 0.00 72 1013.9
20260508154651 71 44 2.0 2.0 0.00 0.00 0.00 74 1013.7
20260508154148 71 66 2.0 2.0 0.00 0.00 0.00 73 1013.6
20260508153644 70 74 2.0 4.0 0.00 0.00 0.00 73 1013.6
20260508153141 70 99 1.0 2.0 0.00 0.00 0.00 73 1013.9
20260508152638 70 94 1.0 2.0 0.00 0.00 0.00 73 1014.0
20260508152133 70 113 2.0 2.0 0.00 0.00 0.00 74 1014.0
20260508151630 69 41 2.0 3.0 0.00 0.00 0.00 74 1014.0
20260508151127 69 129 2.0 2.0 0.00 0.00 0.00 75 1014.0
20260508150624 69 59 2.0 3.0 0.00 0.00 0.00 74 1014.2
20260508150121 70 74 2.0 2.0 0.00 0.00 0.00 73 1014.2
20260508145616 69 79 1.0 2.0 0.00 0.00 0.00 74 1014.1
20260508145113 69 93 1.0 2.0 0.00 0.00 0.00 74 1014.2
20260508144611 69 55 2.0 2.0 0.00 0.00 0.00 74 1014.1
20260508144108 69 85 2.0 3.0 0.00 0.00 0.00 74 1014.1
20260508143605 68 58 1.0 2.0 0.00 0.00 0.00 74 1014.1
20260508143102 68 83 2.0 2.0 0.00 0.00 0.00 75 1014.0
20260508142559 68 66 2.0 2.0 0.00 0.00 0.00 75 1013.9
20260508142055 68 130 2.0 3.0 0.00 0.00 0.00 74 1014.0
20260508141552 67 85 1.0 2.0 0.00 0.00 0.00 75 1013.9
20260508141049 67 75 2.0 2.0 0.00 0.00 0.00 77 1013.9
20260508140547 67 109 2.0 2.0 0.00 0.00 0.00 76 1014.1
20260508140043 66 70 2.0 2.0 0.00 0.00 0.00 76 1014.1
20260508135538 66 72 2.0 2.0 0.00 0.00 0.00 76 1014.2
20260508135035 66 76 2.0 2.0 0.00 0.00 0.00 77 1014.3
20260508134532 66 88 1.0 2.0 0.00 0.00 0.00 77 1014.4
20260508134029 65 89 1.0 2.0 0.00 0.00 0.00 78 1014.3
20260508133526 65 83 1.0 2.0 0.00 0.00 0.00 78 1014.5
20260508133023 65 75 2.0 3.0 0.00 0.00 0.00 78 1014.6
20260508132521 64 82 1.0 3.0 0.00 0.00 0.00 79 1014.2
20260508132018 64 102 1.0 3.0 0.00 0.00 0.00 78 1014.1
20260508131512 64 13 2.0 2.0 0.00 0.00 0.00 78 1014.0
20260508131010 64 85 1.0 3.0 0.00 0.00 0.00 79 1014.5
20260508130507 63 77 2.0 3.0 0.00 0.00 0.00 79 1014.5
20260508130002 64 119 1.0 2.0 0.00 0.00 0.00 79 1014.4
20260508125459 63 97 2.0 2.0 0.00 0.00 0.00 80 1014.4
20260508124957 63 103 2.0 2.0 0.00 0.00 0.00 80 1014.4
20260508124454 63 85 2.0 2.0 0.00 0.00 0.00 80 1014.6
20260508123951 63 111 2.0 3.0 0.00 0.00 0.00 79 1014.5
20260508123450 63 98 2.0 2.0 0.00 0.00 0.00 80 1014.2
20260508122946 63 65 2.0 2.0 0.00 0.00 0.00 79 1014.3
20260508122443 63 76 1.0 3.0 0.00 0.00 0.00 79 1014.3
20260508121940 63 72 0.0 2.0 0.00 0.00 0.00 79 1014.5
20260508121438 63 104 2.0 3.0 0.00 0.00 0.00 80 1014.8
20260508120936 63 120 1.0 2.0 0.00 0.00 0.00 79 1014.9
20260508120433 63 105 2.0 2.0 0.00 0.00 0.00 79 1014.9
20260508115931 63 94 2.0 3.0 0.00 0.00 0.00 79 1015.0
20260508115429 63 97 1.0 3.0 0.00 0.00 0.00 79 1015.0
20260508114925 63 102 2.0 3.0 0.00 0.00 0.00 79 1015.1
20260508114422 63 74 2.0 2.0 0.00 0.00 0.00 79 1015.0
20260508113918 63 32 2.0 4.0 0.00 0.00 0.00 79 1015.3
20260508113416 63 22 1.0 2.0 0.00 0.00 0.00 79 1015.1
20260508112913 63 72 2.0 3.0 0.00 0.00 0.00 79 1015.3
20260508112410 63 87 2.0 2.0 0.00 0.00 0.00 79 1014.9
20260508111907 63 88 2.0 2.0 0.00 0.00 0.00 79 1015.1
20260508111404 63 88 1.0 3.0 0.00 0.00 0.00 79 1015.2
20260508110901 63 111 2.0 2.0 0.00 0.00 0.00 79 1015.1
20260508110359 63 135 0.0 3.0 0.00 0.00 0.00 78 1014.6
20260508105858 63 91 2.0 2.0 0.00 0.00 0.00 79 1014.5
20260508105355 62 105 2.0 3.0 0.00 0.00 0.00 79 1014.5
20260508104852 62 95 2.0 2.0 0.00 0.00 0.00 78 1014.6
20260508104349 62 132 3.0 3.0 0.00 0.00 0.00 78 1014.6
20260508103846 62 93 2.0 2.0 0.00 0.00 0.00 78 1014.9
20260508103343 62 88 2.0 2.0 0.00 0.00 0.00 78 1014.8
20260508102840 62 57 2.0 3.0 0.00 0.00 0.00 78 1014.5
20260508102338 62 57 2.0 2.0 0.00 0.00 0.00 78 1014.8
20260508101836 62 60 0.0 2.0 0.00 0.00 0.00 79 1014.9
20260508101333 62 51 2.0 2.0 0.00 0.00 0.00 79 1015.0
20260508100830 62 63 2.0 3.0 0.00 0.00 0.00 79 1014.8
20260508100329 62 78 2.0 2.0 0.00 0.00 0.00 79 1015.0
20260508095824 62 94 1.0 2.0 0.00 0.00 0.00 78 1015.1
20260508095322 62 68 2.0 3.0 0.00 0.00 0.00 81 1015.0
20260508094819 62 76 1.0 3.0 0.00 0.00 0.00 80 1015.0
20260508094316 62 73 2.0 2.0 0.00 0.00 0.00 81 1015.3
20260508093812 63 65 2.0 2.0 0.00 0.00 0.00 80 1015.2
20260508093310 63 88 2.0 2.0 0.00 0.00 0.00 78 1015.3
20260508092807 63 73 2.0 2.0 0.00 0.00 0.00 78 1015.3
20260508092312 63 77 2.0 2.0 0.00 0.00 0.00 78 1015.3
20260508091803 63 99 1.0 2.0 0.00 0.00 0.00 78 1015.0
20260508091259 63 58 2.0 2.0 0.00 0.00 0.00 80 1015.0
20260508090757 62 63 2.0 2.0 0.00 0.00 0.00 80 1014.5
20260508090255 62 82 1.0 2.0 0.00 0.00 0.00 81 1014.6
20260508085751 63 70 2.0 2.0 0.00 0.00 0.00 80 1014.6
20260508085248 62 67 2.0 3.0 0.00 0.00 0.00 80 1014.8
20260508084744 62 83 2.0 2.0 0.00 0.00 0.00 81 1014.9
20260508084242 62 77 2.0 2.0 0.00 0.00 0.00 80 1014.5
20260508083739 63 71 2.0 2.0 0.00 0.00 0.00 81 1014.6
20260508083237 63 80 2.0 2.0 0.00 0.00 0.00 80 1014.8
20260508082736 63 83 2.0 2.0 0.00 0.00 0.00 80 1014.8
20260508082235 63 88 2.0 2.0 0.00 0.00 0.00 78 1015.0
20260508081732 63 89 1.0 2.0 0.00 0.00 0.00 77 1014.9
20260508081228 63 86 2.0 2.0 0.00 0.00 0.00 76 1015.0
20260508080725 63 78 2.0 2.0 0.00 0.00 0.00 75 1014.9
20260508080223 63 79 2.0 3.0 0.00 0.00 0.00 75 1014.8
20260508075720 63 68 2.0 3.0 0.00 0.00 0.00 76 1014.8
20260508075217 63 85 2.0 2.0 0.00 0.00 0.00 77 1014.9
20260508074714 63 84 1.0 2.0 0.00 0.00 0.00 76 1014.8
20260508074212 63 59 2.0 2.0 0.00 0.00 0.00 77 1014.9
20260508073708 63 61 2.0 2.0 0.00 0.00 0.00 78 1014.8
20260508073206 63 76 2.0 3.0 0.00 0.00 0.00 78 1014.5
20260508072702 63 68 2.0 2.0 0.00 0.00 0.00 77 1014.6
20260508072159 62 55 2.0 2.0 0.00 0.00 0.00 79 1014.6
20260508071656 62 81 1.0 3.0 0.00 0.00 0.00 78 1014.9
20260508071155 62 75 2.0 2.0 0.00 0.00 0.00 78 1014.6
20260508070652 62 83 2.0 2.0 0.00 0.00 0.00 78 1014.8
20260508070150 62 96 1.0 2.0 0.00 0.00 0.00 78 1014.9
20260508065647 62 83 1.0 3.0 0.00 0.00 0.00 78 1015.3
20260508065145 62 62 2.0 2.0 0.00 0.00 0.00 78 1015.3
20260508064642 62 74 2.0 2.0 0.00 0.00 0.00 78 1015.4
20260508064140 62 71 2.0 2.0 0.00 0.00 0.00 78 1015.5
20260508063637 62 84 2.0 2.0 0.00 0.00 0.00 79 1015.6
20260508063135 62 83 2.0 2.0 0.00 0.00 0.00 78 1015.8
20260508062633 62 75 2.0 2.0 0.00 0.00 0.00 79 1016.1
20260508062129 62 66 2.0 2.0 0.00 0.00 0.00 80 1016.0
20260508061627 62 85 2.0 2.0 0.00 0.00 0.00 80 1015.9
20260508061124 62 77 2.0 2.0 0.00 0.00 0.00 79 1016.0
20260508060620 62 92 2.0 2.0 0.00 0.00 0.00 79 1015.8
20260508060118 62 75 2.0 3.0 0.00 0.00 0.00 79 1015.5
20260508055613 62 55 1.0 2.0 0.00 0.00 0.00 78 1015.4